Vorticity
17 0 -1 1 -6 30 11 3 -1 12 4 23 12 11 11 14 5 -5 10 10 12 9 10 24 25 6 5 7 8 6 11 25 19 22 10 15 7 7 16 7 -14 -13 3 13 50 3 27 25 37 34 13 6 -1 -5
-4 8 19 3 5 31 11 11 -4 11 25 20 12 7 12 -3 -5 12 13 12 10 13 -2 12 10 25 37 21 8 7 3 -12 -2 -0 4 13 -5 -17 -15 9 -15 19 29 -12 -6 39 -10 -10 3 -15 9 -1 5 -3
11 -3 -0 9 6 16 23 9 2 23 17 12 12 6 -0 6 4 19 13 9 11 8 15 35 -16 26 21 17 15 8 -2 4 27 -8 6 19 2 -7 -8 4 10 22 -4 -0 6 28 -16 -14 -9 -9 11 10 14 8
10 4 9 26 18 27 17 18 25 20 11 11 -7 11 5 8 19 10 15 10 10 7 22 57 -31 2 5 20 24 11 7 18 8 -1 -2 2 -1 7 12 4 -2 -4 13 3 2 5 -0 1 -10 5 -8 2 1 6
12 28 35 20 20 17 21 36 7 8 14 2 4 4 15 14 15 10 10 8 8 12 -13 2 10 25 8 2 18 20 27 36 31 20 10 7 9 9 21 29 17 46 36 36 23 49 43 44 38 15 -4 -11 -14 -6
36 21 5 6 19 28 15 1 18 11 -6 21 9 19 6 16 12 10 7 11 13 -0 6 16 22 24 25 22 34 19 -20 -10 3 16 10 12 20 29 15 -22 36 -18 7 12 -6 -3 10 5 2 26 28 32 24 16
5 10 21 36 15 13 23 19 1 6 6 16 11 17 11 11 9 6 2 5 5 7 11 18 38 16 0 -2 -5 11 20 18 8 3 -2 8 21 22 -3 -1 18 42 11 11 31 33 19 18 15 17 20 22 18 17
15 37 29 12 13 12 -2 1 5 -5 14 24 11 9 10 9 8 6 5 6 10 12 32 19 4 3 -4 24 15 15 16 19 19 20 21 24 31 22 21 15 -3 -2 4 6 8 10 4 11 15 16 17 19 14 17
21 12 4 7 -0 4 3 -3 14 29 17 8 9 10 8 7 5 5 11 7 11 14 10 5 -6 23 13 7 10 20 12 19 14 7 18 23 10 5 -9 -5 3 1 6 6 2 3 4 6 9 9 11 7 16 25
14 8 0 2 2 12 26 28 22 9 7 9 10 8 11 19 7 6 20 27 37 31 27 34 20 -2 6 10 4 20 21 14 9 16 17 15 14 15 8 3 6 10 -0 2 4 2 5 7 7 11 10 7 9 10
5 10 12 13 -0 17 9 7 10 10 10 8 6 7 5 8 8 21 22 12 14 10 18 7 -2 -6 -5 11 5 26 8 13 12 9 15 11 23 10 6 -3 -5 4 15 25 29 32 30 22 23 45 26 12 8 6
15 11 24 1 12 7 3 12 10 10 8 6 8 9 6 16 22 13 16 16 13 9 6 12 -14 -6 -2 8 22 21 19 14 10 7 13 14 3 -5 2 18 23 22 22 25 21 16 14 15 14 24 28 41 -9 9
5 12 12 5 8 2 13 11 10 8 8 10 6 20 18 12 15 8 15 14 8 9 6 7 -2 -6 12 25 15 22 11 4 8 18 12 -6 1 14 11 15 22 25 26 21 19 15 20 18 22 26 41 48 54 7
11 3 2 4 4 13 12 9 8 9 7 9 17 14 7 13 12 14 9 10 7 4 -2 2 5 9 11 39 27 8 11 13 12 8 -2 4 9 6 6 8 21 24 25 24 22 21 25 15 28 31 49 49 21 11
3 3 6 6 14 12 10 9 9 6 7 11 14 14 16 8 9 11 3 1 -3 1 12 13 17 22 22 16 15 6 17 11 7 -13 10 10 4 6 9 7 8 16 22 26 25 24 18 15 29 19 25 19 16 6
5 3 9 13 12 10 8 7 5 7 11 10 11 8 8 8 5 0 1 6 7 8 11 15 16 17 19 12 14 9 8 11 -11 12 9 6 8 8 7 9 6 8 18 21 25 24 20 13 26 31 19 17 12 9
14 14 17 9 9 9 7 5 7 12 12 11 15 8 -2 3 6 10 12 13 13 14 11 18 16 9 10 17 8 11 1 4 13 10 5 8 10 11 10 10 11 7 10 16 18 20 20 20 20 28 27 26 16 8
4 9 13 11 8 6 5 8 12 10 9 13 10 11 13 12 12 11 12 14 14 10 12 22 14 7 -11 4 -3 -2 -1 -13 0 12 9 8 7 7 10 10 9 11 10 7 9 15 21 25 27 23 21 21 24 27
8 10 10 7 5 5 10 15 11 8 7 10 16 17 16 14 12 12 14 14 12 -3 2 26 24 20 22 19 13 1 2 12 23 17 12 6 7 10 11 10 10 10 9 11 10 6 7 10 14 15 17 20 20 22
8 8 7 4 8 13 11 11 9 9 4 10 7 11 10 13 12 8 9 10 9 5 9 18 21 26 8 3 4 2 8 22 18 15 8 7 9 10 12 13 15 14 13 13 14 13 10 10 9 8 8 9 11 11
9 6 12 13 13 10 2 6 6 8 16 6 3 4 9 14 15 15 15 10 8 10 16 23 18 18 13 10 17 23 23 18 15 11 8 8 10 12 15 12 11 7 5 6 10 12 12 16 12 13 15 14 12 11
15 18 12 10 9 9 12 9 4 4 9 11 14 17 11 14 14 17 13 6 13 13 18 25 27 26 25 25 24 20 18 13 10 9 10 12 13 18 11 7 7 9 9 9 10 9 9 9 9 8 9 7 8 7
2 4 4 7 11 12 11 21 16 18 17 8 14 12 12 12 9 11 14 1 7 15 16 18 17 19 21 19 17 13 10 10 10 10 10 11 14 14 8 8 9 11 10 10 11 11 11 10 10 10 10 10 10 10
3 4 9 15 10 5 10 6 8 11 9 11 12 9 9 11 10 11 13 18 18 16 13 12 11 10 10 10 12 12 12 13 13 13 15 14 11 9 7 9 9 10 11 11 11 10 10 9 9 9 8 8 8 9
1 9 8 11 13 15 14 13 16 16 14 16 13 15 9 9 1 2 9 16 15 17 11 12 11 12 13 13 11 11 11 11 12 14 15 13 8 9 11 12 11 11 12 12 11 12 12 12 12 12 12 12 12 13
12 15 6 6 9 13 7 10 11 6 5 8 12 11 12 17 24 8 2 -3 13 17 13 13 13 13 12 11 11 11 12 13 15 17 13 10 12 13 13 12 12 13 12 12 12 12 12 12 13 13 12 12 12 12
11 2 8 12 9 5 10 10 8 8 10 14 12 20 26 17 18 11 11 14 18 15 13 12 11 11 11 12 13 13 16 16 15 13 12 13 14 15 15 13 14 13 13 13 13 12 12 12 12 12 12 11 9 8
7 7 14 9 10 13 11 11 9 17 29 21 27 11 10 2 7 11 6 10 21 18 12 11 10 10 10 11 14 17 15 12 12 14 13 12 11 10 8 8 8 9 9 9 9 10 10 11 11 11 10 10 10 11
11 12 12 12 13 10 10 11 14 15 17 17 6 7 8 12 11 12 11 11 14 21 15 11 13 11 11 11 14 14 11 13 12 8 7 8 7 8 8 8 8 9 9 9 10 10 11 11 12 12 12 11 11 10
14 14 12 13 11 10 12 15 12 15 18 22 12 5 14 17 14 9 15 17 19 19 16 13 14 14 14 15 15 14 12 8 8 7 7 7 8 8 9 10 10 10 9 9 9 7 7 8 11 13 13 13 13 12
13 13 12 11 11 11 13 16 21 20 18 15 12 13 13 13 19 22 21 19 17 15 14 15 17 17 17 17 15 11 6 6 7 6 6 7 8 10 10 11 12 11 10 9 8 7 8 9 11 13 14 15 16 15
18 13 13 11 13 19 23 21 18 20 14 12 13 17 18 18 15 16 14 16 16 13 15 15 15 19 17 14 9 6 6 4 5 6 7 8 7 8 9 9 13 12 10 10 9 6 7 10 11 15 15 16 14 13
13 13 12 14 21 20 21 21 19 14 11 12 15 12 11 10 8 11 13 13 13 11 15 16 16 16 12 9 7 7 6 5 5 3 8 7 4 5 7 9 7 15 12 10 11 8 8 6 6 8 13 15 14 13
Height
3017 3023 3028 3030 3036 3040 3041 3043 3047 3051 3054 3054 3057 3061 3063 3063 3063 3064 3063 3058 3059 3061 3061 3061 3059 3060 3060 3058 3053 3051 3051 3049 3050 3048 3046 3045 3042 3043 3037 3035 3035 3036 3035 3035 3035 3034 3028 3023 3022 3023 3023 3020 3019 3017
3008 3012 3016 3022 3025 3029 3030 3032 3037 3040 3044 3047 3049 3053 3054 3055 3057 3055 3057 3052 3051 3054 3055 3054 3054 3051 3050 3051 3050 3048 3048 3045 3046 3047 3043 3041 3039 3038 3034 3031 3033 3032 3034 3030 3029 3024 3021 3021 3021 3021 3019 3017 3015 3014
2996 3002 3006 3011 3013 3016 3018 3025 3028 3031 3036 3042 3044 3046 3048 3050 3050 3051 3049 3046 3046 3048 3048 3046 3047 3045 3044 3043 3042 3041 3045 3042 3042 3041 3039 3038 3035 3035 3030 3027 3025 3025 3025 3022 3020 3017 3017 3016 3017 3017 3010 3010 3008 3005
2984 2991 2995 2997 3000 3005 3012 3015 3018 3025 3032 3036 3039 3041 3043 3044 3044 3044 3045 3041 3041 3041 3039 3040 3042 3040 3035 3035 3034 3033 3036 3037 3036 3036 3033 3032 3032 3029 3022 3022 3019 3017 3016 3013 3007 3007 3008 3009 3010 3004 3001 3000 2999 2999
2974 2978 2984 2990 2993 2999 3003 3007 3015 3020 3026 3031 3034 3037 3037 3038 3038 3039 3039 3038 3037 3040 3037 3037 3035 3033 3028 3029 3026 3026 3027 3030 3030 3030 3027 3023 3024 3021 3015 3014 3003 3007 3004 3005 2999 3000 2998 2995 2995 2993 2990 2988 2991 2989
2964 2972 2978 2986 2989 2993 2997 3004 3010 3014 3022 3024 3028 3032 3034 3034 3035 3033 3034 3035 3032 3033 3030 3027 3028 3025 3024 3024 3022 3023 3025 3027 3025 3023 3019 3015 3018 3017 3009 3002 2999 2999 2999 2998 2993 2992 2989 2985 2984 2984 2981 2980 2980 2979
2960 2969 2974 2980 2985 2991 2996 3001 3007 3012 3015 3020 3024 3027 3028 3029 3031 3031 3032 3031 3028 3027 3026 3024 3022 3021 3023 3024 3021 3021 3021 3020 3018 3016 3012 3011 3013 3013 3003 2993 2996 2993 2989 2988 2987 2984 2979 2980 2974 2974 2972 2970 2969 2969
2957 2963 2972 2978 2983 2990 2995 3000 3005 3008 3011 3014 3018 3022 3024 3026 3025 3027 3027 3026 3024 3022 3023 3022 3020 3020 3022 3021 3019 3018 3016 3013 3011 3010 3007 3005 3005 3003 2996 2993 2990 2986 2984 2982 2981 2978 2973 2970 2967 2965 2964 2963 2959 2958
2957 2966 2972 2978 2982 2989 2995 3000 3001 3004 3007 3012 3016 3019 3021 3022 3024 3022 3020 3022 3018 3021 3018 3020 3018 3019 3020 3018 3016 3014 3011 3008 3008 3004 3004 3003 2999 2997 2993 2988 2984 2981 2978 2972 2970 2967 2964 2962 2960 2957 2955 2954 2951 2951
2957 2967 2972 2981 2982 2988 2994 2997 2998 3003 3006 3011 3013 3017 3017 3017 3018 3019 3016 3015 3011 3012 3014 3016 3016 3018 3020 3017 3013 3012 3008 3008 3006 3003 3000 2996 2993 2993 2989 2985 2980 2976 2972 2966 2958 2956 2953 2947 2945 2945 2944 2944 2943 2943
2960 2967 2975 2980 2984 2987 2992 2995 3000 3004 3006 3007 3009 3014 3013 3014 3014 3011 3011 3011 3011 3012 3015 3015 3015 3016 3016 3016 3013 3011 3008 3006 3004 3002 2999 2994 2990 2987 2985 2982 2976 2969 2961 2955 2947 2941 2938 2931 2927 2926 2928 2930 2932 2934
2962 2969 2974 2979 2983 2988 2992 2996 2999 3003 3006 3005 3007 3010 3012 3009 3008 3009 3009 3010 3011 3014 3015 3015 3015 3015 3015 3013 3011 3010 3007 3004 2999 2998 2997 2991 2988 2985 2981 2976 2967 2958 2950 2944 2938 2932 2928 2923 2918 2914 2912 2915 2919 2923
2963 2969 2975 2980 2984 2988 2992 2995 2998 3002 3002 3003 3005 3006 3005 3005 3007 3007 3007 3008 3010 3012 3014 3014 3014 3013 3010 3010 3009 3007 3004 2999 2997 2994 2991 2988 2986 2981 2974 2967 2960 2951 2943 2937 2931 2926 2920 2915 2909 2902 2898 2899 2904 2913
2966 2971 2976 2981 2985 2989 2991 2994 2997 2998 3000 3001 3002 3002 3003 3004 3005 3005 3007 3008 3011 3012 3013 3011 3009 3008 3006 3006 3005 3002 3000 2997 2993 2989 2988 2986 2981 2976 2971 2965 2955 2946 2938 2932 2926 2920 2915 2910 2903 2897 2892 2892 2901 2909
2968 2973 2977 2981 2985 2988 2990 2992 2995 2996 2998 2999 3000 3001 3002 3002 3004 3005 3006 3008 3010 3009 3008 3006 3005 3004 3002 3001 3000 2999 2995 2991 2989 2988 2986 2983 2978 2974 2969 2963 2955 2946 2938 2930 2923 2917 2912 2908 2903 2899 2897 2899 2904 2909
2968 2972 2977 2980 2983 2986 2989 2991 2992 2994 2996 2998 2999 2999 3001 3002 3003 3004 3003 3004 3005 3004 3003 3003 3001 3000 2998 2997 2996 2994 2991 2988 2988 2985 2983 2981 2977 2973 2968 2963 2956 2949 2940 2931 2924 2918 2914 2909 2905 2901 2901 2903 2905 2907
2970 2973 2976 2979 2983 2986 2988 2990 2991 2993 2995 2997 2999 2999 2999 3000 2999 3000 2999 2999 3000 3000 3000 3000 2999 2998 2997 2994 2993 2990 2989 2988 2986 2984 2982 2979 2976 2972 2968 2963 2958 2952 2945 2937 2929 2923 2917 2913 2910 2907 2906 2906 2907 2908
2969 2973 2977 2979 2982 2985 2987 2990 2990 2992 2993 2995 2997 2997 2996 2996 2995 2995 2995 2995 2996 2995 2995 2995 2994 2993 2993 2990 2988 2988 2986 2985 2984 2982 2980 2978 2974 2971 2968 2963 2959 2955 2950 2944 2937 2931 2926 2920 2916 2912 2911 2910 2910 2909
2970 2974 2977 2980 2983 2985 2986 2988 2990 2991 2991 2992 2993 2993 2993 2992 2992 2992 2991 2991 2991 2991 2990 2988 2987 2984 2984 2983 2984 2983 2982 2981 2980 2979 2978 2976 2973 2971 2967 2964 2961 2957 2953 2949 2944 2938 2933 2929 2924 2922 2920 2918 2916 2915
2970 2974 2977 2979 2982 2983 2985 2987 2988 2989 2989 2991 2990 2990 2990 2989 2989 2988 2988 2987 2986 2985 2984 2981 2979 2979 2979 2979 2979 2978 2978 2976 2976 2976 2975 2974 2972 2970 2968 2965 2962 2959 2956 2953 2949 2946 2942 2938 2935 2932 2930 2928 2927 2924
2972 2974 2977 2979 2980 2983 2984 2984 2986 2987 2987 2987 2988 2987 2986 2986 2985 2984 2983 2983 2982 2980 2978 2976 2974 2974 2973 2973 2973 2973 2973 2973 2974 2974 2973 2972 2971 2969 2967 2965 2963 2961 2959 2956 2953 2950 2947 2944 2941 2939 2938 2936 2934 2933
2972 2975 2977 2979 2980 2981 2982 2982 2984 2984 2985 2984 2984 2983 2982 2981 2980 2980 2979 2979 2978 2976 2974 2971 2970 2969 2969 2969 2969 2970 2971 2971 2972 2972 2971 2971 2970 2969 2967 2965 2964 2962 2961 2959 2956 2953 2951 2948 2946 2944 2943 2941 2940 2939
2973 2975 2977 2978 2979 2980 2981 2980 2981 2981 2981 2980 2980 2979 2979 2978 2978 2978 2977 2976 2975 2973 2972 2970 2969 2968 2969 2969 2969 2970 2970 2971 2971 2971 2970 2970 2969 2968 2967 2966 2965 2963 2962 2960 2958 2956 2954 2952 2950 2948 2947 2945 2944 2943
2973 2975 2976 2977 2977 2978 2978 2978 2978 2978 2978 2978 2977 2977 2976 2976 2976 2975 2973 2973 2972 2971 2971 2970 2970 2970 2970 2969 2969 2970 2970 2970 2970 2970 2970 2969 2968 2967 2967 2966 2965 2964 2963 2961 2960 2958 2956 2954 2952 2950 2949 2948 2946 2945
2974 2975 2976 2975 2975 2975 2975 2975 2975 2975 2975 2975 2974 2974 2974 2974 2973 2972 2971 2971 2970 2969 2969 2969 2969 2970 2970 2969 2970 2970 2970 2970 2970 2970 2970 2969 2968 2968 2967 2966 2965 2964 2963 2961 2960 2959 2958 2956 2955 2953 2952 2950 2949 2948
2971 2972 2973 2972 2972 2973 2973 2973 2973 2973 2973 2973 2972 2972 2971 2970 2970 2969 2968 2968 2967 2967 2967 2968 2968 2968 2969 2969 2969 2969 2969 2969 2969 2969 2969 2969 2969 2968 2967 2966 2965 2964 2963 2962 2960 2959 2958 2956 2955 2953 2951 2950 2949 2948
2969 2969 2969 2970 2970 2971 2970 2971 2971 2971 2970 2969 2969 2968 2968 2968 2966 2965 2965 2965 2965 2965 2966 2966 2967 2967 2968 2968 2968 2968 2969 2968 2969 2969 2970 2969 2969 2968 2968 2967 2965 2965 2964 2962 2961 2959 2958 2956 2955 2953 2952 2951 2950 2948
2965 2966 2967 2967 2967 2967 2967 2967 2967 2966 2966 2965 2966 2965 2965 2964 2964 2964 2963 2963 2962 2963 2964 2964 2965 2966 2967 2967 2968 2968 2968 2969 2969 2969 2970 2970 2970 2969 2969 2968 2967 2966 2965 2964 2962 2961 2959 2958 2956 2955 2954 2952 2951 2949
2962 2963 2963 2963 2963 2963 2963 2963 2963 2962 2962 2962 2963 2963 2962 2962 2962 2961 2961 2960 2960 2960 2961 2963 2963 2964 2965 2966 2967 2967 2968 2969 2970 2970 2971 2971 2971 2971 2970 2969 2968 2967 2966 2965 2963 2962 2961 2960 2958 2956 2955 2953 2951 2949
2959 2959 2959 2959 2959 2959 2960 2959 2958 2958 2958 2958 2959 2959 2959 2958 2958 2958 2958 2958 2958 2958 2959 2960 2961 2962 2964 2965 2966 2967 2969 2970 2971 2971 2971 2972 2972 2971 2970 2969 2968 2968 2967 2966 2965 2963 2962 2960 2958 2955 2953 2950 2948 2947
2955 2955 2956 2955 2955 2955 2955 2954 2954 2954 2955 2955 2956 2956 2956 2955 2955 2955 2955 2955 2956 2957 2958 2959 2960 2961 2962 2964 2966 2967 2969 2971 2971 2972 2972 2972 2972 2971 2970 2970 2969 2968 2967 2966 2964 2963 2961 2959 2956 2954 2951 2949 2948 2946
2952 2952 2952 2952 2952 2951 2950 2950 2951 2951 2952 2953 2953 2953 2953 2953 2954 2954 2954 2955 2955 2956 2957 2958 2959 2961 2963 2964 2966 2968 2969 2970 2971 2972 2972 2972 2971 2971 2970 2969 2968 2967 2965 2964 2963 2961 2960 2958 2956 2953 2951 2949 2946 2944
2949 2950 2950 2949 2948 2948 2948 2948 2949 2950 2951 2951 2952 2952 2952 2953 2954 2954 2954 2954 2955 2956 2957 2958 2959 2961 2963 2965 2966 2968 2969 2970 2970 2971 2971 2971 2970 2970 2969 2968 2967 2965 2964 2963 2961 2960 2958 2957 2955 2952 2949 2946 2944 2941